TimeEDT,TemperatureF,Dew PointF,Humidity,Sea Level PressureIn,VisibilityMPH,Wind Direction,Wind SpeedMPH,Gust SpeedMPH,PrecipitationIn,Events,Conditions,WindDirDegrees,DateUTC
12:53 AM,32.0,30.0,92,29.86,10.0,Calm,Calm,-,N/A,,Overcast,0,2013-03-28 04:53:00
1:53 AM,32.0,30.0,92,29.85,10.0,Calm,Calm,-,N/A,,Overcast,0,2013-03-28 05:53:00
2:53 AM,32.0,30.0,92,29.85,10.0,Calm,Calm,-,N/A,,Overcast,0,2013-03-28 06:53:00
3:53 AM,33.1,30.0,89,29.85,10.0,Calm,Calm,-,N/A,,Overcast,0,2013-03-28 07:53:00
4:53 AM,32.0,30.0,92,29.85,10.0,Calm,Calm,-,N/A,,Overcast,0,2013-03-28 08:53:00
5:53 AM,32.0,30.0,92,29.86,10.0,Calm,Calm,-,N/A,,Overcast,0,2013-03-28 09:53:00
6:53 AM,32.0,30.0,92,29.87,10.0,Calm,Calm,-,N/A,,Overcast,0,2013-03-28 10:53:00
7:53 AM,34.0,30.0,85,29.88,10.0,Calm,Calm,-,N/A,,Overcast,0,2013-03-28 11:53:00
8:53 AM,37.0,30.9,79,29.88,10.0,North,9.2,-,N/A,,Overcast,360,2013-03-28 12:53:00
9:53 AM,39.9,30.0,68,29.88,10.0,North,11.5,-,N/A,,Overcast,10,2013-03-28 13:53:00
10:53 AM,42.1,28.0,58,29.88,10.0,North,9.2,-,N/A,,Partly Cloudy,360,2013-03-28 14:53:00
11:53 AM,44.1,23.0,43,29.88,10.0,NNE,11.5,19.6,N/A,,Partly Cloudy,20,2013-03-28 15:53:00
12:53 PM,45.0,24.1,44,29.88,10.0,North,12.7,18.4,N/A,,Scattered Clouds,350,2013-03-28 16:53:00
1:53 PM,46.0,21.9,39,29.87,10.0,North,12.7,21.9,N/A,,Partly Cloudy,350,2013-03-28 17:53:00
2:53 PM,46.9,21.0,36,29.86,10.0,North,11.5,17.3,N/A,,Mostly Cloudy,350,2013-03-28 18:53:00
3:53 PM,46.0,21.9,39,29.86,10.0,North,12.7,-,N/A,,Mostly Cloudy,10,2013-03-28 19:53:00
4:53 PM,46.0,23.0,40,29.85,10.0,North,10.4,-,N/A,,Mostly Cloudy,360,2013-03-28 20:53:00
5:53 PM,44.1,24.1,45,29.86,10.0,North,6.9,-,N/A,,Mostly Cloudy,360,2013-03-28 21:53:00
6:53 PM,41.0,26.1,55,29.87,10.0,Calm,Calm,-,N/A,,Overcast,0,2013-03-28 22:53:00
7:53 PM,34.0,26.1,73,29.88,10.0,Calm,Calm,-,N/A,,Mostly Cloudy,0,2013-03-28 23:53:00
8:53 PM,33.1,27.0,78,29.89,10.0,Calm,Calm,-,N/A,,Overcast,0,2013-03-29 00:53:00
9:53 PM,32.0,26.1,79,29.89,10.0,Calm,Calm,-,N/A,,Scattered Clouds,0,2013-03-29 01:53:00
10:53 PM,30.0,25.0,82,29.89,10.0,Calm,Calm,-,N/A,,Overcast,0,2013-03-29 02:53:00
11:53 PM,32.0,25.0,75,29.89,10.0,Calm,Calm,-,N/A,,Overcast,0,2013-03-29 03:53:00